| time (UTC) | temp F | wind direction | speed MPH | gust MPH | rain 1hr in | rain 24hr in | rain mn in | humidity % | barometer mb |
| 20260903133509 | 80 | 76 | 0.0 | 0.0 | 0.00 | 0.38 | 0.01 | 94 | 1016.2 |
| 20260903133008 | 79 | 76 | 0.0 | 0.0 | 0.00 | 0.38 | 0.01 | 95 | 1016.1 |
| 20260903132504 | 79 | 155 | 0.0 | 0.0 | 0.00 | 0.38 | 0.01 | 95 | 1016.1 |
| 20260903132006 | 79 | 155 | 0.0 | 0.0 | 0.00 | 0.38 | 0.01 | 95 | 1016.1 |
| 20260903131504 | 79 | 156 | 0.0 | 0.0 | 0.00 | 0.38 | 0.01 | 95 | 1016.1 |
| 20260903131003 | 79 | 172 | 0.0 | 0.0 | 0.00 | 0.38 | 0.01 | 95 | 1016.1 |
| 20260903130506 | 79 | 173 | 0.0 | 0.0 | 0.00 | 0.38 | 0.01 | 96 | 1016.1 |
| 20260903130001 | 79 | 174 | 0.0 | 0.0 | 0.00 | 0.38 | 0.01 | 96 | 1015.9 |
| 20260903125601 | 79 | 174 | 0.0 | 0.0 | 0.00 | 0.38 | 0.01 | 96 | 1016.1 |
| 20260903125101 | 79 | 174 | 0.0 | 0.0 | 0.00 | 0.38 | 0.01 | 95 | 1016.1 |
| 20260903124612 | 79 | 174 | 0.0 | 0.0 | 0.00 | 0.38 | 0.01 | 96 | 1016.2 |
| 20260903124058 | 79 | 174 | 0.0 | 0.0 | 0.00 | 0.38 | 0.01 | 96 | 1016.1 |
| 20260903123558 | 78 | 174 | 0.0 | 0.0 | 0.00 | 0.38 | 0.01 | 96 | 1016.1 |
| 20260903123058 | 78 | 174 | 0.0 | 0.0 | 0.00 | 0.38 | 0.01 | 95 | 1016.2 |
| 20260903122557 | 78 | 174 | 0.0 | 0.0 | 0.00 | 0.38 | 0.01 | 95 | 1016.2 |
| 20260903122056 | 78 | 175 | 0.0 | 0.0 | 0.00 | 0.38 | 0.01 | 96 | 1016.2 |
| 20260903121601 | 78 | 175 | 0.0 | 0.0 | 0.00 | 0.38 | 0.01 | 95 | 1016.1 |
| 20260903121054 | 78 | 175 | 0.0 | 0.0 | 0.00 | 0.38 | 0.01 | 95 | 1015.9 |
| 20260903120554 | 77 | 175 | 0.0 | 0.0 | 0.00 | 0.38 | 0.01 | 95 | 1016.0 |
| 20260903120101 | 77 | 175 | 0.0 | 0.0 | 0.00 | 0.38 | 0.01 | 95 | 1015.9 |
| 20260903115554 | 77 | 175 | 0.0 | 0.0 | 0.00 | 0.38 | 0.01 | 95 | 1015.8 |
| 20260903115053 | 77 | 182 | 0.0 | 0.0 | 0.00 | 0.38 | 0.01 | 95 | 1015.7 |
| 20260903114553 | 77 | 183 | 0.0 | 0.0 | 0.00 | 0.38 | 0.01 | 95 | 1015.6 |
| 20260903114052 | 77 | 183 | 0.0 | 0.0 | 0.00 | 0.38 | 0.01 | 95 | 1015.6 |
| 20260903113552 | 77 | 182 | 0.0 | 0.0 | 0.00 | 0.38 | 0.01 | 95 | 1015.5 |
| 20260903113131 | 77 | 182 | 0.0 | 0.0 | 0.00 | 0.38 | 0.01 | 95 | 1015.4 |
| 20260903112555 | 77 | 182 | 0.0 | 0.0 | 0.00 | 0.38 | 0.01 | 95 | 1015.3 |
| 20260903112052 | 77 | 182 | 0.0 | 0.0 | 0.00 | 0.38 | 0.01 | 95 | 1015.2 |
| 20260903111552 | 76 | 183 | 0.0 | 0.0 | 0.00 | 0.38 | 0.01 | 95 | 1015.1 |
| 20260903111051 | 76 | 183 | 0.0 | 0.0 | 0.00 | 0.38 | 0.01 | 95 | 1015.2 |
| 20260903110550 | 76 | 182 | 0.0 | 0.0 | 0.00 | 0.38 | 0.01 | 95 | 1015.0 |
| 20260903110056 | 76 | 182 | 0.0 | 0.0 | 0.00 | 0.38 | 0.01 | 95 | 1015.0 |
| 20260903105552 | 76 | 182 | 0.0 | 0.0 | 0.00 | 0.38 | 0.01 | 95 | 1014.9 |
| 20260903105050 | 76 | 182 | 0.0 | 0.0 | 0.00 | 0.38 | 0.01 | 95 | 1014.8 |
| 20260903104559 | 76 | 182 | 0.0 | 0.0 | 0.00 | 0.38 | 0.01 | 95 | 1014.7 |
| 20260903104048 | 76 | 182 | 0.0 | 0.0 | 0.00 | 0.38 | 0.01 | 95 | 1014.7 |
| 20260903103548 | 76 | 183 | 0.0 | 0.0 | 0.00 | 0.38 | 0.01 | 95 | 1014.7 |
| 20260903103048 | 76 | 182 | 0.0 | 0.0 | 0.00 | 0.38 | 0.01 | 95 | 1014.8 |
| 20260903102550 | 76 | 183 | 0.0 | 0.0 | 0.00 | 0.38 | 0.01 | 95 | 1014.7 |
| 20260903102047 | 76 | 182 | 0.0 | 0.0 | 0.00 | 0.38 | 0.01 | 95 | 1014.7 |
| 20260903101549 | 76 | 182 | 0.0 | 0.0 | 0.00 | 0.38 | 0.01 | 95 | 1014.7 |
| 20260903101046 | 76 | 182 | 0.0 | 0.0 | 0.00 | 0.38 | 0.01 | 95 | 1014.5 |
| 20260903100546 | 76 | 182 | 0.0 | 0.0 | 0.00 | 0.38 | 0.01 | 95 | 1014.4 |
| 20260903100046 | 76 | 183 | 0.0 | 0.0 | 0.00 | 0.38 | 0.01 | 95 | 1014.3 |
| 20260903095545 | 76 | 183 | 0.0 | 0.0 | 0.00 | 0.38 | 0.01 | 95 | 1014.4 |
| 20260903095044 | 76 | 183 | 0.0 | 0.0 | 0.00 | 0.38 | 0.01 | 95 | 1014.4 |
| 20260903094551 | 76 | 182 | 0.0 | 0.0 | 0.00 | 0.38 | 0.01 | 95 | 1014.4 |
| 20260903094044 | 76 | 182 | 0.0 | 0.0 | 0.00 | 0.38 | 0.01 | 95 | 1014.3 |
| 20260903093548 | 76 | 182 | 0.0 | 0.0 | 0.00 | 0.38 | 0.01 | 95 | 1014.3 |
| 20260903093045 | 76 | 183 | 0.0 | 0.0 | 0.00 | 0.38 | 0.01 | 95 | 1014.2 |
| 20260903092544 | 76 | 182 | 0.0 | 0.0 | 0.00 | 0.38 | 0.01 | 95 | 1014.3 |
| 20260903092044 | 76 | 182 | 0.0 | 0.0 | 0.00 | 0.38 | 0.01 | 95 | 1014.3 |
| 20260903091549 | 76 | 182 | 0.0 | 0.0 | 0.00 | 0.38 | 0.01 | 95 | 1014.3 |
| 20260903091044 | 76 | 182 | 0.0 | 0.0 | 0.00 | 0.38 | 0.01 | 95 | 1014.3 |
| 20260903090543 | 76 | 182 | 0.0 | 0.0 | 0.00 | 0.38 | 0.01 | 95 | 1014.3 |
| 20260903090047 | 76 | 182 | 0.0 | 0.0 | 0.00 | 0.38 | 0.01 | 95 | 1014.3 |
| 20260903085542 | 76 | 182 | 0.0 | 0.0 | 0.00 | 0.38 | 0.01 | 95 | 1014.2 |
| 20260903085042 | 76 | 182 | 0.0 | 0.0 | 0.00 | 0.38 | 0.01 | 95 | 1014.3 |
| 20260903084542 | 76 | 182 | 0.0 | 0.0 | 0.00 | 0.38 | 0.01 | 95 | 1014.2 |
| 20260903084043 | 76 | 182 | 0.0 | 0.0 | 0.00 | 0.38 | 0.01 | 95 | 1014.3 |
| 20260903083541 | 76 | 183 | 0.0 | 0.0 | 0.00 | 0.38 | 0.01 | 95 | 1014.4 |
| 20260903083039 | 76 | 183 | 0.0 | 0.0 | 0.00 | 0.38 | 0.01 | 95 | 1014.4 |
| 20260903082539 | 76 | 182 | 0.0 | 0.0 | 0.00 | 0.38 | 0.01 | 95 | 1014.4 |
| 20260903082040 | 76 | 183 | 0.0 | 0.0 | 0.00 | 0.38 | 0.01 | 95 | 1014.5 |
| 20260903081539 | 76 | 183 | 0.0 | 0.0 | 0.00 | 0.38 | 0.01 | 95 | 1014.5 |
| 20260903081039 | 76 | 183 | 0.0 | 0.0 | 0.00 | 0.38 | 0.01 | 95 | 1014.6 |
| 20260903080538 | 76 | 182 | 0.0 | 0.0 | 0.00 | 0.38 | 0.01 | 95 | 1014.6 |
| 20260903080038 | 76 | 182 | 0.0 | 0.0 | 0.00 | 0.38 | 0.01 | 95 | 1014.6 |
| 20260903075538 | 77 | 182 | 0.0 | 0.0 | 0.00 | 0.38 | 0.01 | 95 | 1014.5 |
| 20260903075037 | 77 | 182 | 0.0 | 0.0 | 0.00 | 0.38 | 0.01 | 95 | 1014.6 |
| 20260903074540 | 77 | 183 | 0.0 | 0.0 | 0.00 | 0.38 | 0.01 | 95 | 1014.6 |
| 20260903074037 | 77 | 182 | 0.0 | 0.0 | 0.00 | 0.38 | 0.01 | 95 | 1014.6 |
| 20260903073537 | 77 | 183 | 0.0 | 0.0 | 0.00 | 0.38 | 0.01 | 94 | 1014.6 |
| 20260903073037 | 77 | 182 | 0.0 | 0.0 | 0.00 | 0.38 | 0.01 | 95 | 1014.6 |
| 20260903072535 | 77 | 182 | 0.0 | 0.0 | 0.00 | 0.38 | 0.01 | 95 | 1014.8 |
| 20260903072036 | 77 | 182 | 0.0 | 0.0 | 0.00 | 0.38 | 0.01 | 95 | 1014.8 |
| 20260903071545 | 77 | 182 | 0.0 | 0.0 | 0.00 | 0.38 | 0.01 | 95 | 1014.8 |
| 20260903071037 | 77 | 183 | 0.0 | 0.0 | 0.00 | 0.38 | 0.01 | 95 | 1014.8 |
| 20260903070535 | 77 | 182 | 0.0 | 0.0 | 0.00 | 0.38 | 0.01 | 95 | 1014.8 |
| 20260903070034 | 77 | 183 | 0.0 | 0.0 | 0.00 | 0.38 | 0.01 | 95 | 1014.7 |
| 20260903065536 | 77 | 182 | 0.0 | 0.0 | 0.00 | 0.38 | 0.01 | 95 | 1014.8 |
| 20260903065035 | 77 | 183 | 0.0 | 0.0 | 0.00 | 0.38 | 0.01 | 95 | 1014.8 |
| 20260903064533 | 77 | 183 | 0.0 | 0.0 | 0.00 | 0.38 | 0.01 | 95 | 1014.9 |
| 20260903064033 | 78 | 182 | 0.0 | 0.0 | 0.00 | 0.38 | 0.01 | 95 | 1015.0 |
| 20260903063534 | 78 | 183 | 0.0 | 0.0 | 0.00 | 0.38 | 0.01 | 95 | 1014.9 |
| 20260903063033 | 78 | 182 | 0.0 | 0.0 | 0.00 | 0.38 | 0.01 | 95 | 1015.1 |
| 20260903062531 | 78 | 182 | 0.0 | 0.0 | 0.00 | 0.38 | 0.01 | 95 | 1015.1 |
| 20260903062031 | 78 | 183 | 0.0 | 0.0 | 0.01 | 0.38 | 0.01 | 95 | 1015.2 |
| 20260903061531 | 78 | 183 | 0.0 | 0.0 | 0.01 | 0.38 | 0.01 | 95 | 1015.3 |
| 20260903061034 | 78 | 182 | 0.0 | 0.0 | 0.01 | 0.38 | 0.01 | 95 | 1015.2 |
| 20260903060530 | 78 | 183 | 0.0 | 0.0 | 0.01 | 0.38 | 0.01 | 95 | 1015.2 |
| 20260903060029 | 78 | 183 | 0.0 | 0.0 | 0.01 | 0.38 | 0.01 | 95 | 1015.3 |
| 20260903055529 | 78 | 182 | 0.0 | 0.0 | 0.01 | 0.38 | 0.01 | 95 | 1015.4 |
| 20260903055031 | 78 | 182 | 0.0 | 0.0 | 0.01 | 0.38 | 0.01 | 95 | 1015.5 |
| 20260903054529 | 78 | 183 | 0.0 | 0.0 | 0.01 | 0.38 | 0.01 | 95 | 1015.4 |
| 20260903054027 | 77 | 182 | 0.0 | 0.0 | 0.01 | 0.38 | 0.01 | 95 | 1015.5 |
| 20260903053529 | 77 | 183 | 0.0 | 0.0 | 0.01 | 0.38 | 0.01 | 95 | 1015.4 |
| 20260903053026 | 77 | 183 | 0.0 | 0.0 | 0.01 | 0.38 | 0.01 | 95 | 1015.5 |
| 20260903052527 | 77 | 183 | 0.0 | 0.0 | 0.01 | 0.38 | 0.01 | 94 | 1015.5 |
| 20260903052030 | 77 | 182 | 0.0 | 0.0 | 0.00 | 0.37 | 0.00 | 95 | 1015.6 |
| 20260903051540 | 77 | 183 | 0.0 | 0.0 | 0.00 | 0.37 | 0.00 | 95 | 1015.5 |
| 20260903051032 | 77 | 182 | 0.0 | 0.0 | 0.00 | 0.37 | 0.00 | 95 | 1015.5 |
| 20260903050525 | 77 | 182 | 0.0 | 0.0 | 0.00 | 0.37 | 0.00 | 94 | 1015.5 |
| 20260903050024 | 77 | 182 | 0.0 | 0.0 | 0.00 | 0.37 | 0.00 | 94 | 1015.6 |
| 20260903045525 | 77 | 182 | 0.0 | 0.0 | 0.00 | 0.37 | 0.00 | 94 | 1015.5 |
| 20260903045026 | 77 | 182 | 0.0 | 0.0 | 0.00 | 0.37 | 0.00 | 94 | 1015.7 |
| 20260903044531 | 77 | 183 | 0.0 | 0.0 | 0.00 | 0.37 | 0.00 | 94 | 1015.6 |
| 20260903044024 | 77 | 182 | 0.0 | 0.0 | 0.00 | 0.37 | 0.00 | 94 | 1015.6 |
| 20260903043524 | 77 | 182 | 0.0 | 0.0 | 0.00 | 0.37 | 0.00 | 94 | 1015.6 |
| 20260903043054 | 77 | 183 | 0.0 | 0.0 | 0.00 | 0.37 | 0.00 | 94 | 1015.6 |
| 20260903042523 | 77 | 183 | 0.0 | 0.0 | 0.00 | 0.37 | 0.00 | 94 | 1015.6 |
| 20260903042022 | 77 | 182 | 0.0 | 0.0 | 0.00 | 0.37 | 0.00 | 94 | 1015.7 |
| 20260903041522 | 77 | 183 | 0.0 | 0.0 | 0.00 | 0.37 | 0.00 | 94 | 1015.8 |
| 20260903041020 | 77 | 183 | 0.0 | 0.0 | 0.00 | 0.37 | 0.00 | 94 | 1015.9 |
| 20260903040519 | 77 | 183 | 0.0 | 0.0 | 0.00 | 0.37 | 0.00 | 94 | 1015.8 |
| 20260903040018 | 77 | 182 | 0.0 | 0.0 | 0.00 | 0.37 | 0.00 | 94 | 1015.8 |
| 20260903035517 | 77 | 182 | 0.0 | 0.0 | 0.00 | 0.37 | 0.37 | 94 | 1015.8 |
| 20260903035018 | 77 | 183 | 0.0 | 0.0 | 0.00 | 0.37 | 0.37 | 94 | 1015.9 |
| 20260903034533 | 77 | 183 | 0.0 | 0.0 | 0.00 | 0.37 | 0.37 | 94 | 1016.0 |
| 20260903034018 | 77 | 183 | 0.0 | 0.0 | 0.00 | 0.37 | 0.37 | 94 | 1016.0 |
| 20260903033518 | 77 | 183 | 0.0 | 0.0 | 0.00 | 0.37 | 0.37 | 94 | 1016.0 |
| 20260903033020 | 77 | 183 | 0.0 | 0.0 | 0.00 | 0.37 | 0.37 | 94 | 1016.1 |
| 20260903032517 | 77 | 183 | 0.0 | 0.0 | 0.00 | 0.37 | 0.37 | 94 | 1016.1 |
| 20260903032018 | 77 | 183 | 0.0 | 0.0 | 0.00 | 0.37 | 0.37 | 94 | 1016.3 |
| 20260903031517 | 77 | 183 | 0.0 | 0.0 | 0.00 | 0.37 | 0.37 | 94 | 1016.2 |
| 20260903031016 | 77 | 183 | 0.0 | 0.0 | 0.00 | 0.37 | 0.37 | 94 | 1016.1 |
| 20260903030517 | 77 | 183 | 0.0 | 0.0 | 0.00 | 0.37 | 0.37 | 94 | 1016.1 |
| 20260903030017 | 77 | 183 | 0.0 | 0.0 | 0.00 | 0.37 | 0.37 | 94 | 1016.2 |
| 20260903025517 | 77 | 183 | 0.0 | 0.0 | 0.00 | 0.37 | 0.37 | 94 | 1016.2 |
| 20260903025016 | 77 | 183 | 0.0 | 0.0 | 0.00 | 0.37 | 0.37 | 94 | 1016.3 |
| 20260903024522 | 77 | 183 | 0.0 | 0.0 | 0.00 | 0.37 | 0.37 | 94 | 1016.3 |
| 20260903024016 | 77 | 183 | 0.0 | 0.0 | 0.00 | 0.37 | 0.37 | 94 | 1016.3 |
| 20260903023516 | 77 | 183 | 0.0 | 0.0 | 0.00 | 0.37 | 0.37 | 94 | 1016.4 |
| 20260903023016 | 78 | 183 | 0.0 | 0.0 | 0.00 | 0.37 | 0.37 | 94 | 1016.4 |
| 20260903022515 | 78 | 183 | 0.0 | 0.0 | 0.00 | 0.37 | 0.37 | 94 | 1016.2 |
| 20260903022017 | 78 | 183 | 0.0 | 0.0 | 0.00 | 0.37 | 0.37 | 93 | 1016.4 |
| 20260903021517 | 78 | 183 | 0.0 | 0.0 | 0.00 | 0.37 | 0.37 | 94 | 1016.3 |
| 20260903021016 | 78 | 183 | 0.0 | 0.0 | 0.00 | 0.37 | 0.37 | 94 | 1016.3 |
| 20260903020514 | 78 | 183 | 0.0 | 0.0 | 0.00 | 0.37 | 0.37 | 93 | 1016.2 |
| 20260903020016 | 78 | 183 | 0.0 | 0.0 | 0.00 | 0.37 | 0.37 | 93 | 1016.3 |
| 20260903015514 | 78 | 183 | 0.0 | 0.0 | 0.00 | 0.37 | 0.37 | 93 | 1016.3 |
| 20260903015013 | 78 | 183 | 0.0 | 0.0 | 0.00 | 0.37 | 0.37 | 93 | 1016.4 |
| 20260903014518 | 78 | 183 | 0.0 | 0.0 | 0.00 | 0.37 | 0.37 | 93 | 1016.2 |
| 20260903014017 | 78 | 183 | 0.0 | 0.0 | 0.00 | 0.37 | 0.37 | 93 | 1016.2 |
| 20260903013516 | 78 | 183 | 0.0 | 0.0 | 0.00 | 0.37 | 0.37 | 93 | 1016.2 |
| 20260903013013 | 78 | 183 | 0.0 | 0.0 | 0.00 | 0.37 | 0.37 | 93 | 1016.1 |
| 20260903012511 | 78 | 182 | 0.0 | 0.0 | 0.00 | 0.37 | 0.37 | 93 | 1016.1 |
| 20260903012012 | 78 | 183 | 0.0 | 0.0 | 0.00 | 0.37 | 0.37 | 93 | 1016.2 |
| 20260903011516 | 78 | 183 | 0.0 | 0.0 | 0.00 | 0.37 | 0.37 | 93 | 1016.2 |
| 20260903011011 | 78 | 183 | 0.0 | 0.0 | 0.00 | 0.37 | 0.37 | 93 | 1016.1 |
| 20260903010511 | 78 | 183 | 0.0 | 0.0 | 0.00 | 0.37 | 0.37 | 93 | 1016.2 |
| 20260903010013 | 78 | 183 | 0.0 | 0.0 | 0.00 | 0.37 | 0.37 | 93 | 1016.2 |
| 20260903005511 | 78 | 183 | 0.0 | 0.0 | 0.00 | 0.37 | 0.37 | 93 | 1015.9 |
| 20260903005011 | 78 | 183 | 0.0 | 0.0 | 0.00 | 0.37 | 0.37 | 93 | 1015.8 |
| 20260903004511 | 78 | 183 | 0.0 | 0.0 | 0.00 | 0.37 | 0.37 | 92 | 1015.8 |
| 20260903004011 | 78 | 183 | 0.0 | 0.0 | 0.00 | 0.37 | 0.37 | 92 | 1015.7 |
| 20260903003510 | 78 | 182 | 0.0 | 0.0 | 0.00 | 0.37 | 0.37 | 93 | 1015.7 |
| 20260903003011 | 79 | 183 | 0.0 | 0.0 | 0.00 | 0.37 | 0.37 | 93 | 1015.7 |
| 20260903002511 | 79 | 182 | 0.0 | 0.0 | 0.00 | 0.37 | 0.37 | 93 | 1015.6 |
| 20260903002009 | 79 | 183 | 0.0 | 0.0 | 0.00 | 0.37 | 0.37 | 93 | 1015.8 |
| 20260903001509 | 79 | 183 | 0.0 | 0.0 | 0.00 | 0.37 | 0.37 | 93 | 1015.8 |
| 20260903001009 | 79 | 183 | 0.0 | 0.0 | 0.00 | 0.37 | 0.37 | 93 | 1015.9 |
| 20260903000508 | 79 | 183 | 0.0 | 0.0 | 0.00 | 0.37 | 0.37 | 93 | 1015.8 |
| 20260903000008 | 79 | 182 | 0.0 | 0.0 | 0.00 | 0.37 | 0.37 | 93 | 1015.8 |
| 20260902235509 | 79 | 183 | 0.0 | 0.0 | 0.00 | 0.37 | 0.37 | 93 | 1015.8 |
| 20260902235011 | 79 | 182 | 0.0 | 0.0 | 0.00 | 0.37 | 0.37 | 92 | 1015.8 |
| 20260902234510 | 79 | 182 | 0.0 | 0.0 | 0.00 | 0.37 | 0.37 | 92 | 1015.7 |
| 20260902234007 | 79 | 183 | 0.0 | 0.0 | 0.00 | 0.37 | 0.37 | 92 | 1015.7 |
| 20260902233508 | 79 | 183 | 0.0 | 0.0 | 0.00 | 0.37 | 0.37 | 92 | 1015.6 |
| 20260902233007 | 79 | 236 | 0.0 | 0.0 | 0.00 | 0.37 | 0.37 | 92 | 1015.6 |
| 20260902232510 | 79 | 236 | 0.0 | 0.0 | 0.00 | 0.37 | 0.37 | 92 | 1015.7 |
| 20260902232006 | 79 | 236 | 0.0 | 0.0 | 0.00 | 0.37 | 0.37 | 92 | 1015.7 |
| 20260902231507 | 79 | 236 | 0.0 | 0.0 | 0.00 | 0.37 | 0.37 | 92 | 1015.6 |
| 20260902231007 | 79 | 266 | 0.0 | 0.0 | 0.00 | 0.37 | 0.37 | 92 | 1015.6 |
| 20260902230506 | 79 | 266 | 0.0 | 0.0 | 0.00 | 0.37 | 0.37 | 92 | 1015.5 |
| 20260902230005 | 79 | 266 | 0.0 | 0.0 | 0.00 | 0.37 | 0.37 | 92 | 1015.6 |
| 20260902225506 | 79 | 266 | 0.0 | 0.0 | 0.00 | 0.37 | 0.37 | 92 | 1015.7 |
| 20260902225006 | 79 | 266 | 0.0 | 0.0 | 0.00 | 0.37 | 0.37 | 93 | 1015.7 |
| 20260902224506 | 79 | 266 | 0.0 | 0.0 | 0.04 | 0.37 | 0.37 | 93 | 1015.6 |
| 20260902224008 | 79 | 265 | 0.0 | 1.0 | 0.04 | 0.37 | 0.37 | 93 | 1015.6 |
| 20260902223509 | 79 | 265 | 0.0 | 1.0 | 0.04 | 0.37 | 0.37 | 93 | 1015.6 |
| 20260902223018 | 79 | 265 | 0.0 | 1.0 | 0.04 | 0.37 | 0.37 | 93 | 1015.7 |
| 20260902222505 | 80 | 265 | 0.0 | 0.0 | 0.04 | 0.37 | 0.37 | 93 | 1015.8 |
| 20260902222006 | 80 | 24 | 0.0 | 0.0 | 0.04 | 0.37 | 0.37 | 93 | 1015.8 |
| 20260902221504 | 80 | 24 | 0.0 | 0.0 | 0.04 | 0.37 | 0.37 | 94 | 1015.7 |
| 20260902221004 | 80 | 24 | 0.0 | 0.0 | 0.05 | 0.37 | 0.37 | 93 | 1015.6 |
| 20260902220504 | 80 | 28 | 0.0 | 0.0 | 0.05 | 0.37 | 0.37 | 93 | 1015.7 |
| 20260902220005 | 80 | 28 | 0.0 | 0.0 | 0.05 | 0.37 | 0.37 | 93 | 1015.7 |
| 20260902215504 | 80 | 28 | 0.0 | 0.0 | 0.05 | 0.37 | 0.37 | 93 | 1015.7 |
| 20260902215003 | 80 | 28 | 0.0 | 0.0 | 0.05 | 0.37 | 0.37 | 93 | 1015.7 |
| 20260902214503 | 80 | 123 | 0.0 | 0.0 | 0.01 | 0.33 | 0.33 | 93 | 1015.7 |
| 20260902214005 | 80 | 122 | 0.0 | 0.0 | 0.01 | 0.33 | 0.33 | 93 | 1015.8 |
| 20260902213506 | 80 | 123 | 0.0 | 0.0 | 0.02 | 0.33 | 0.33 | 93 | 1015.8 |
| 20260902213002 | 80 | 122 | 0.0 | 0.0 | 0.13 | 0.33 | 0.33 | 94 | 1015.7 |
| 20260902212502 | 80 | 123 | 0.0 | 0.0 | 0.28 | 0.33 | 0.33 | 94 | 1015.8 |
| 20260902212006 | 80 | 123 | 0.0 | 0.0 | 0.28 | 0.33 | 0.33 | 93 | 1015.8 |
| 20260902211501 | 80 | 122 | 0.0 | 0.0 | 0.28 | 0.33 | 0.33 | 93 | 1015.8 |
| 20260902211001 | 79 | 122 | 0.0 | 0.0 | 0.28 | 0.32 | 0.32 | 93 | 1015.9 |
| 20260902210502 | 79 | 123 | 0.0 | 0.0 | 0.28 | 0.32 | 0.32 | 93 | 1016.0 |
| 20260902210001 | 79 | 122 | 0.0 | 0.0 | 0.30 | 0.32 | 0.32 | 93 | 1016.0 |
| 20260902205500 | 79 | 123 | 0.0 | 0.0 | 0.30 | 0.32 | 0.32 | 93 | 1015.9 |
| 20260902205100 | 79 | 122 | 0.0 | 0.0 | 0.32 | 0.32 | 0.32 | 92 | 1016.0 |
| 20260902205002 | 79 | 123 | 0.0 | 0.0 | 0.32 | 0.32 | 0.32 | 92 | 1015.9 |
| 20260902204601 | 79 | 123 | 0.0 | 0.0 | 0.32 | 0.32 | 0.32 | 92 | 1015.9 |
| 20260902204101 | 79 | 123 | 0.0 | 3.0 | 0.32 | 0.32 | 0.32 | 92 | 1015.9 |
| 20260902203603 | 79 | 122 | 0.0 | 3.0 | 0.31 | 0.31 | 0.31 | 91 | 1016.0 |
| 20260902203107 | 80 | 130 | 0.0 | 2.0 | 0.20 | 0.20 | 0.20 | 91 | 1016.1 |
| 20260902202559 | 80 | 130 | 0.0 | 0.0 | 0.04 | 0.04 | 0.04 | 91 | 1016.1 |
| 20260902202059 | 80 | 130 | 0.0 | 1.0 | 0.04 | 0.04 | 0.04 | 91 | 1016.1 |
| 20260902201606 | 80 | 130 | 0.0 | 2.0 | 0.04 | 0.04 | 0.04 | 90 | 1016.1 |
| 20260902201103 | 80 | 130 | 0.0 | 2.0 | 0.04 | 0.04 | 0.04 | 89 | 1016.2 |
| 20260902200559 | 81 | 130 | 0.0 | 6.0 | 0.03 | 0.03 | 0.03 | 88 | 1016.1 |
| 20260902200134 | 82 | 117 | 2.0 | 7.0 | 0.02 | 0.02 | 0.02 | 86 | 1016.1 |
| 20260902195557 | 84 | 117 | 2.0 | 12.0 | 0.02 | 0.02 | 0.02 | 84 | 1016.0 |
| 20260902195057 | 85 | 101 | 3.0 | 12.0 | 0.00 | 0.00 | 0.00 | 81 | 1016.1 |
| 20260902194558 | 86 | 63 | 1.0 | 6.0 | 0.00 | 0.00 | 0.00 | 81 | 1015.9 |
| 20260902194101 | 86 | 59 | 1.0 | 3.0 | 0.00 | 0.00 | 0.00 | 80 | 1015.9 |
| 20260902193559 | 87 | 41 | 0.0 | 2.0 | 0.00 | 0.00 | 0.00 | 80 | 1016.0 |
| 20260902193057 | 87 | 87 | 0.0 | 2.0 | 0.00 | 0.00 | 0.00 | 79 | 1015.9 |
| 20260902192557 | 87 | 89 | 0.0 | 2.0 | 0.00 | 0.00 | 0.00 | 79 | 1015.9 |
| 20260902192057 | 88 | 40 | 0.0 | 3.0 | 0.00 | 0.00 | 0.00 | 78 | 1016.0 |
| 20260902191557 | 89 | 87 | 0.0 | 3.0 | 0.00 | 0.00 | 0.00 | 76 | 1016.0 |
| 20260902191056 | 89 | 84 | 1.0 | 5.0 | 0.00 | 0.00 | 0.00 | 76 | 1016.0 |
| 20260902190557 | 90 | 42 | 2.0 | 5.0 | 0.00 | 0.00 | 0.00 | 76 | 1016.1 |
| 20260902190103 | 90 | 82 | 1.0 | 4.0 | 0.00 | 0.00 | 0.00 | 76 | 1016.0 |
| 20260902185600 | 90 | 67 | 1.0 | 4.0 | 0.00 | 0.00 | 0.00 | 76 | 1016.1 |
| 20260902185059 | 89 | 101 | 0.0 | 5.0 | 0.00 | 0.00 | 0.00 | 78 | 1016.2 |
| 20260902184556 | 88 | 51 | 1.0 | 5.0 | 0.00 | 0.00 | 0.00 | 78 | 1016.3 |
| 20260902184056 | 88 | 76 | 0.0 | 9.0 | 0.00 | 0.00 | 0.00 | 77 | 1016.3 |
| 20260902183557 | 89 | 119 | 2.0 | 9.0 | 0.00 | 0.00 | 0.00 | 77 | 1016.2 |
| 20260902183107 | 89 | 87 | 2.0 | 8.0 | 0.00 | 0.00 | 0.00 | 77 | 1016.2 |
| 20260902182555 | 89 | 88 | 1.0 | 3.0 | 0.00 | 0.00 | 0.00 | 76 | 1016.3 |
| 20260902182055 | 88 | 100 | 1.0 | 6.0 | 0.00 | 0.00 | 0.00 | 78 | 1016.4 |
| 20260902181555 | 88 | 116 | 0.0 | 3.0 | 0.00 | 0.00 | 0.00 | 79 | 1016.3 |
| 20260902181057 | 88 | 92 | 0.0 | 3.0 | 0.00 | 0.00 | 0.00 | 79 | 1016.4 |
| 20260902180554 | 88 | 114 | 0.0 | 3.0 | 0.00 | 0.00 | 0.00 | 79 | 1016.4 |
| 20260902180055 | 88 | 69 | 0.0 | 1.0 | 0.00 | 0.00 | 0.00 | 77 | 1016.5 |
| 20260902175554 | 89 | 69 | 0.0 | 3.0 | 0.00 | 0.00 | 0.00 | 76 | 1016.5 |
| 20260902175054 | 90 | 69 | 1.0 | 4.0 | 0.00 | 0.00 | 0.00 | 75 | 1016.6 |
| 20260902174554 | 90 | 86 | 2.0 | 4.0 | 0.00 | 0.00 | 0.00 | 72 | 1016.5 |
| 20260902174052 | 91 | 92 | 1.0 | 4.0 | 0.00 | 0.00 | 0.00 | 73 | 1016.5 |
| 20260902173551 | 90 | 89 | 1.0 | 9.0 | 0.00 | 0.00 | 0.00 | 72 | 1016.5 |
| 20260902173051 | 90 | 35 | 2.0 | 9.0 | 0.00 | 0.00 | 0.00 | 74 | 1016.5 |
| 20260902172549 | 90 | 78 | 1.0 | 6.0 | 0.00 | 0.00 | 0.00 | 75 | 1016.5 |
| 20260902172049 | 89 | 78 | 1.0 | 6.0 | 0.00 | 0.00 | 0.00 | 77 | 1016.5 |
| 20260902171550 | 88 | 30 | 1.0 | 3.0 | 0.00 | 0.00 | 0.00 | 79 | 1016.7 |
| 20260902171053 | 88 | 80 | 0.0 | 5.0 | 0.00 | 0.00 | 0.00 | 79 | 1016.7 |
| 20260902170549 | 88 | 82 | 1.0 | 5.0 | 0.00 | 0.00 | 0.00 | 78 | 1016.7 |
| 20260902170050 | 88 | 57 | 0.0 | 3.0 | 0.00 | 0.00 | 0.00 | 78 | 1016.9 |
| 20260902165550 | 87 | 52 | 0.0 | 3.0 | 0.00 | 0.00 | 0.00 | 77 | 1017.0 |
| 20260902165052 | 88 | 82 | 1.0 | 4.0 | 0.00 | 0.00 | 0.00 | 77 | 1017.1 |
| 20260902164547 | 89 | 59 | 2.0 | 4.0 | 0.00 | 0.00 | 0.00 | 76 | 1017.1 |
| 20260902164047 | 89 | 52 | 1.0 | 4.0 | 0.00 | 0.00 | 0.00 | 75 | 1017.0 |
| 20260902163547 | 89 | 87 | 1.0 | 2.0 | 0.00 | 0.00 | 0.00 | 75 | 1017.0 |
| 20260902163046 | 89 | 73 | 1.0 | 3.0 | 0.00 | 0.00 | 0.00 | 75 | 1017.1 |
| 20260902162546 | 89 | 65 | 1.0 | 3.0 | 0.00 | 0.00 | 0.00 | 76 | 1017.3 |
| 20260902162045 | 89 | 82 | 0.0 | 3.0 | 0.00 | 0.00 | 0.00 | 74 | 1017.4 |
| 20260902161551 | 89 | 86 | 1.0 | 3.0 | 0.00 | 0.00 | 0.00 | 76 | 1017.3 |
| 20260902161043 | 88 | 88 | 1.0 | 4.0 | 0.00 | 0.00 | 0.00 | 76 | 1017.3 |
| 20260902160543 | 88 | 80 | 1.0 | 4.0 | 0.00 | 0.00 | 0.00 | 77 | 1017.3 |
| 20260902160044 | 87 | 17 | 0.0 | 3.0 | 0.00 | 0.00 | 0.00 | 77 | 1017.5 |
| 20260902155543 | 88 | 82 | 0.0 | 4.0 | 0.00 | 0.00 | 0.00 | 77 | 1017.7 |
| 20260902155046 | 88 | 35 | 1.0 | 4.0 | 0.00 | 0.00 | 0.00 | 79 | 1017.6 |
| 20260902154547 | 88 | 49 | 0.0 | 3.0 | 0.00 | 0.00 | 0.00 | 78 | 1017.8 |
| 20260902154045 | 89 | 74 | 0.0 | 6.0 | 0.00 | 0.00 | 0.00 | 78 | 1017.9 |
| 20260902153542 | 88 | 42 | 1.0 | 6.0 | 0.00 | 0.00 | 0.00 | 78 | 1017.9 |
| 20260902153041 | 88 | 123 | 0.0 | 3.0 | 0.00 | 0.00 | 0.00 | 80 | 1017.8 |
| 20260902152541 | 87 | 44 | 1.0 | 3.0 | 0.00 | 0.00 | 0.00 | 80 | 1017.9 |
| 20260902152040 | 87 | 64 | 1.0 | 6.0 | 0.00 | 0.00 | 0.00 | 80 | 1017.8 |
| 20260902151538 | 87 | 58 | 1.0 | 6.0 | 0.00 | 0.00 | 0.00 | 81 | 1017.8 |
| 20260902151037 | 86 | 28 | 0.0 | 3.0 | 0.00 | 0.00 | 0.00 | 82 | 1017.8 |
| 20260902150539 | 86 | 311 | 1.0 | 3.0 | 0.00 | 0.00 | 0.00 | 84 | 1017.9 |
| 20260902150035 | 85 | 75 | 0.0 | 4.0 | 0.00 | 0.00 | 0.00 | 83 | 1017.8 |
| 20260902145534 | 86 | 54 | 0.0 | 4.0 | 0.00 | 0.00 | 0.00 | 84 | 1017.8 |
| 20260902145034 | 86 | 128 | 1.0 | 3.0 | 0.00 | 0.00 | 0.00 | 84 | 1017.7 |
| 20260902144533 | 86 | 44 | 0.0 | 3.0 | 0.00 | 0.00 | 0.00 | 85 | 1017.8 |
| 20260902144033 | 86 | 44 | 0.0 | 4.0 | 0.00 | 0.00 | 0.00 | 84 | 1017.8 |
| 20260902143533 | 86 | 73 | 0.0 | 4.0 | 0.00 | 0.00 | 0.00 | 84 | 1017.7 |
| 20260902143031 | 85 | 70 | 0.0 | 4.0 | 0.00 | 0.00 | 0.00 | 85 | 1017.6 |
| 20260902142529 | 85 | 106 | 0.0 | 3.0 | 0.00 | 0.00 | 0.00 | 86 | 1017.7 |
| 20260902142029 | 84 | 90 | 0.0 | 1.0 | 0.00 | 0.00 | 0.00 | 86 | 1017.5 |
| 20260902141535 | 84 | 73 | 0.0 | 4.0 | 0.00 | 0.00 | 0.00 | 86 | 1017.4 |
| 20260902141026 | 84 | 83 | 0.0 | 4.0 | 0.00 | 0.00 | 0.00 | 86 | 1017.4 |
| 20260902140525 | 84 | 34 | 1.0 | 4.0 | 0.00 | 0.00 | 0.00 | 87 | 1017.5 |
| 20260902140023 | 83 | 82 | 0.0 | 0.0 | 0.00 | 0.00 | 0.00 | 87 | 1017.5 |
| 20260902135522 | 83 | 63 | 0.0 | 0.0 | 0.00 | 0.00 | 0.00 | 88 | 1017.5 |
| 20260902135021 | 83 | 34 | 0.0 | 0.0 | 0.00 | 0.00 | 0.00 | 89 | 1017.5 |
| 20260902134519 | 82 | 65 | 0.0 | 0.0 | 0.00 | 0.00 | 0.00 | 90 | 1017.5 |
| 20260902134018 | 82 | 59 | 0.0 | 0.0 | 0.00 | 0.00 | 0.00 | 91 | 1017.6 |